Theta_e
326 328 327 328 329 324 324 323 324 321 320 319 318 318 319 321 323 324 323 324 328 329 329 330 328 328 329 326 325 328 329 329 329 328 328 327 328 328 327 325 324 327 325
325 328 327 328 328 325 325 324 325 322 321 320 321 320 321 323 324 325 326 327 327 328 330 330 329 329 330 329 328 329 330 329 329 327 326 328 328 326 325 323 323 323 321
325 327 327 326 326 326 324 324 325 323 322 321 322 323 323 323 324 324 323 325 327 327 328 330 330 330 330 329 329 328 328 327 327 327 327 327 327 325 324 325 325 319 312
324 327 327 326 326 326 325 324 324 323 322 323 323 323 323 323 324 323 325 326 326 325 326 330 330 330 329 329 328 328 326 328 327 326 327 326 325 325 325 325 323 315 311
322 325 327 325 327 325 326 324 323 323 321 322 323 324 324 324 324 323 323 324 324 324 327 331 329 330 329 328 326 326 328 326 326 326 326 326 326 326 326 322 315 309 313
321 323 324 326 327 326 326 325 325 324 323 322 323 324 325 325 324 324 324 324 324 324 329 330 330 329 328 327 326 326 326 325 325 325 325 326 327 326 322 310 311 312 317
320 321 322 325 327 327 326 326 326 326 327 325 325 326 327 326 326 326 324 325 326 327 328 328 328 329 328 327 325 325 326 325 325 326 324 321 319 315 313 313 316 318 321
320 319 319 326 327 326 326 326 325 323 324 326 326 325 326 327 326 326 326 326 327 328 327 328 328 327 327 326 326 327 328 326 323 321 321 322 322 322 322 322 322 323 325
319 318 318 327 325 325 324 327 327 324 322 323 324 325 326 328 328 326 326 326 326 326 327 326 325 326 327 326 326 325 325 324 324 325 325 325 327 325 325 325 324 324 326
319 318 317 326 326 324 323 322 326 324 322 317 319 326 326 327 326 326 327 326 326 326 327 327 326 325 325 324 322 323 323 324 326 325 323 327 326 320 317 316 316 318 318
321 318 317 321 327 327 326 323 323 324 324 317 316 322 324 326 326 326 326 327 326 326 326 326 326 325 325 323 321 323 324 323 320 319 322 321 316 316 318 318 319 319 319
322 318 318 319 326 328 329 326 326 325 324 320 316 318 322 319 320 322 325 323 321 322 325 324 320 321 320 320 320 319 319 320 320 319 315 315 318 320 320 320 320 322 320
322 318 318 318 317 321 328 328 327 327 326 324 321 318 320 322 321 321 318 321 318 317 315 315 320 316 313 316 315 315 317 315 315 314 315 314 315 318 322 323 322 321 322
322 320 319 318 318 321 324 325 326 325 325 322 322 323 318 322 322 323 322 321 320 320 320 319 315 313 313 315 316 315 315 316 317 317 317 314 319 323 322 321 322 319 312
322 321 319 320 318 320 322 323 323 324 322 321 319 321 324 320 318 320 320 319 320 321 319 318 317 315 314 315 316 317 317 319 318 315 312 314 321 322 321 319 314 311 308
322 323 319 320 320 318 320 322 323 322 321 321 319 316 322 321 320 315 313 315 315 316 314 312 311 313 311 312 316 318 317 317 315 311 311 316 319 321 320 312 308 305 301
321 323 321 319 320 318 317 319 321 320 321 322 321 320 320 319 320 320 315 311 312 315 314 312 311 312 312 313 314 316 316 317 313 311 312 316 320 320 315 312 303 302 300
322 322 322 319 320 320 318 318 318 319 319 321 321 317 318 319 320 319 317 314 311 310 313 313 313 313 313 312 313 314 316 314 311 312 317 319 320 317 312 304 306 301 299
323 322 323 320 320 321 320 319 319 319 319 317 316 315 313 318 319 319 320 317 313 308 309 312 313 315 314 314 313 313 312 311 310 313 320 320 317 313 304 308 302 299 298
325 324 323 324 321 321 321 320 319 319 320 319 317 315 312 318 320 319 319 319 318 318 308 308 312 313 316 316 316 316 315 312 311 316 319 316 313 304 308 304 299 299 298
327 326 324 324 324 322 322 322 320 320 320 320 320 317 316 315 317 318 319 319 318 318 318 312 308 311 313 316 317 317 315 315 318 317 316 314 307 307 302 299 304 299 296
329 329 327 326 324 325 324 323 322 321 321 321 321 321 317 318 319 318 318 318 318 319 319 318 315 309 310 312 314 316 316 315 319 318 315 311 305 302 301 306 303 297 295
331 330 330 329 328 326 325 325 325 323 323 323 322 323 322 320 318 318 318 317 317 318 318 318 319 318 316 311 310 312 313 312 314 316 312 306 302 300 306 301 297 295 294
332 332 331 332 331 329 327 326 326 326 325 324 323 324 324 324 323 321 320 320 320 319 318 318 318 318 318 318 315 315 313 314 315 315 306 302 300 306 299 297 296 294 293
333 332 332 332 332 331 330 330 329 328 328 327 325 324 325 324 324 324 324 323 321 320 320 319 318 317 318 317 316 315 314 317 316 314 305 302 304 300 299 296 294 293 293
334 334 333 333 332 332 331 331 331 331 330 329 327 326 326 325 324 324 325 324 324 323 322 321 319 317 316 316 315 314 314 314 313 307 301 302 303 301 297 294 293 292 293
Wind_Speed
8 6 4 1 5 6 6 3 5 7 10 11 10 9 9 7 4 3 5 5 7 9 10 13 14 15 25 26 25 28 30 28 29 23 21 20 23 24 20 15 8 3 5
8 9 5 2 4 4 5 2 4 8 10 11 10 10 10 9 7 5 7 6 6 8 9 11 13 15 20 24 28 27 29 27 26 24 18 21 32 23 16 12 7 4 3
9 9 6 2 2 4 5 5 6 10 11 13 11 10 11 10 9 10 6 8 8 6 7 9 15 18 25 27 29 27 22 22 20 24 19 18 20 19 20 13 8 7 6
11 11 8 2 4 4 5 9 10 13 15 15 12 11 10 11 10 10 10 10 8 7 7 9 15 18 23 23 26 28 21 21 23 21 21 19 20 17 14 10 9 6 4
12 12 8 9 8 8 8 13 15 15 15 13 13 12 9 9 9 9 8 5 4 3 7 11 14 17 25 23 21 21 22 28 24 22 23 19 16 15 11 8 10 7 3
13 12 10 14 10 10 11 17 16 14 13 13 11 10 8 7 7 7 7 5 5 6 11 13 15 23 21 23 20 20 20 24 25 26 20 13 13 12 11 8 7 7 3
15 13 15 15 10 10 10 14 14 12 10 11 9 6 6 8 9 9 9 5 10 12 13 18 22 20 23 23 24 20 16 16 14 9 8 9 10 11 10 8 7 5 3
19 15 17 17 14 14 9 11 11 12 10 9 9 9 8 11 14 14 9 11 14 13 17 16 20 23 24 24 20 15 12 14 15 12 13 12 11 11 9 6 4 2 2
22 19 18 18 18 14 12 12 9 7 8 8 8 9 8 12 15 13 12 15 16 17 16 18 22 20 23 20 12 12 14 13 10 8 8 7 4 8 6 6 5 4 4
24 21 18 22 20 16 13 11 10 6 5 9 9 11 11 14 16 15 13 18 18 19 18 20 20 22 18 15 13 11 10 10 9 8 11 11 4 4 3 3 2 1 2
24 22 19 24 24 20 16 14 11 11 5 9 9 12 13 14 17 15 14 14 15 17 18 19 19 16 13 14 14 11 9 9 7 6 6 6 4 4 3 3 3 6 9
27 25 22 23 26 23 19 16 13 10 10 10 12 12 14 14 15 15 15 14 15 15 17 17 15 15 14 16 15 13 12 9 8 7 8 8 8 8 8 11 12 10 10
29 26 25 23 25 23 23 21 18 14 12 13 14 16 17 16 14 14 15 14 11 11 12 15 16 16 16 15 15 15 16 13 12 11 11 10 11 12 12 10 10 10 9
31 27 27 29 27 27 24 23 22 19 15 18 19 17 20 21 19 18 16 16 15 13 13 13 16 17 17 17 17 18 17 15 13 13 11 10 10 12 11 11 9 7 6
31 29 28 30 31 29 29 26 23 21 17 15 21 21 21 21 25 22 20 18 17 17 17 18 20 23 23 23 22 21 19 17 16 15 14 13 14 13 12 10 9 8 8
35 34 30 30 34 32 32 31 27 21 18 15 11 18 20 19 17 20 25 23 21 19 21 21 23 25 26 26 25 23 22 20 18 17 17 17 15 15 14 14 11 11 12
37 37 34 33 33 35 33 32 31 26 22 19 16 18 20 19 19 18 20 25 26 25 25 24 24 26 25 26 27 26 24 22 20 20 21 19 19 19 17 13 15 14 11
40 37 36 37 35 36 33 30 29 24 24 25 23 23 24 21 20 19 20 24 30 33 30 28 27 27 27 27 28 29 27 26 25 23 23 22 23 20 18 20 13 14 13
44 40 39 37 36 36 35 33 29 27 24 23 23 25 26 25 23 24 24 27 29 33 34 32 32 31 31 30 29 29 29 29 28 27 26 25 25 22 23 12 16 18 11
42 42 39 40 38 35 37 38 34 31 27 24 24 24 28 29 30 29 30 31 31 30 32 35 34 34 33 32 31 30 30 31 30 30 30 29 27 26 19 19 19 10 12
41 41 42 41 41 37 36 38 38 34 32 28 24 24 27 30 31 31 29 31 33 32 30 32 35 36 35 35 34 33 32 31 32 34 34 34 31 27 24 21 13 16 13
39 39 38 40 42 41 39 36 36 35 34 30 26 24 27 31 31 31 32 32 33 33 32 31 33 35 36 38 38 38 35 32 34 34 36 36 33 30 26 21 19 21 14
37 37 37 37 37 40 39 36 34 39 36 34 30 24 27 29 31 31 32 32 35 34 33 34 33 33 34 36 40 38 37 30 25 40 41 38 35 31 23 22 22 19 13
34 34 33 29 32 34 35 35 33 33 36 38 35 29 30 26 29 31 30 30 33 34 36 37 37 39 37 38 37 36 36 31 23 35 39 35 31 23 21 21 19 16 11
34 31 28 29 27 27 28 30 33 36 37 38 36 32 31 30 31 27 29 31 32 35 39 40 39 39 43 43 42 40 35 28 29 41 44 37 28 26 25 20 19 15 10
26 28 29 29 29 28 27 26 27 30 31 32 34 35 33 32 31 30 27 30 34 39 41 41 39 39 41 40 39 36 34 31 37 40 36 31 30 31 25 21 20 15 10
Wind_Direction
181 176 203 286 356 19 17 80 79 150 163 174 184 193 194 182 156 150 148 132 136 162 187 184 180 181 184 187 183 186 189 186 170 156 165 171 172 160 146 143 114 116 126
188 188 177 233 345 22 20 106 108 135 157 172 174 170 170 159 131 133 132 130 138 140 141 171 181 173 180 182 181 182 177 183 179 161 169 165 145 149 155 165 181 174 153
188 184 182 218 24 32 20 132 126 131 138 147 148 154 153 144 128 124 125 128 127 126 129 147 156 167 170 177 171 171 171 171 173 169 158 148 142 151 163 175 182 183 179
182 189 180 132 99 45 56 129 125 122 128 135 137 141 143 144 146 131 124 128 131 137 145 154 155 170 166 152 154 162 172 169 156 162 165 161 174 172 179 199 193 180 171
185 188 180 154 119 84 87 122 128 122 125 128 135 139 142 147 150 163 161 148 166 140 142 163 160 168 163 149 154 147 153 145 145 154 165 162 165 179 190 193 181 175 162
189 186 174 160 143 103 95 124 120 122 132 136 135 138 142 149 161 174 183 197 188 172 155 162 161 160 148 143 143 139 149 142 161 159 162 186 194 196 186 173 174 174 134
191 184 175 172 176 148 108 122 112 102 119 148 140 128 131 152 152 147 149 136 140 142 146 154 153 159 158 154 147 144 146 161 171 189 180 151 159 162 165 157 144 130 96
191 187 182 181 183 175 161 133 115 94 97 130 136 131 126 132 141 143 144 146 140 142 143 140 145 140 151 153 159 159 156 157 147 139 116 104 114 128 124 133 149 163 272
193 189 187 183 183 180 182 182 160 116 90 113 126 141 137 130 139 145 132 138 145 150 150 145 148 143 146 152 150 139 144 145 147 153 173 165 168 169 165 172 174 186 214
195 189 188 187 189 189 194 193 180 160 98 124 125 136 142 142 143 146 137 146 140 145 147 159 156 149 153 157 148 139 150 144 128 127 151 160 160 141 136 135 147 155 226
195 188 187 192 193 197 193 192 192 187 168 158 148 139 139 151 155 156 158 155 158 156 159 166 176 179 176 168 160 157 161 154 148 151 155 175 193 171 160 195 251 266 262
197 190 190 194 194 200 204 199 201 211 198 181 179 173 162 155 157 163 166 166 164 167 169 172 174 175 176 180 184 194 206 214 222 220 206 200 200 213 236 249 251 244 242
199 194 194 192 191 194 202 204 206 207 216 205 190 192 190 186 181 174 168 172 178 175 170 177 181 183 188 192 197 208 215 226 216 210 216 225 229 233 229 219 230 247 253
200 197 197 201 197 194 197 204 211 214 217 215 204 195 198 201 199 195 193 194 196 195 197 193 196 198 201 203 206 206 210 209 213 223 242 247 225 206 211 222 240 235 204
198 200 200 208 206 203 207 207 210 217 226 230 222 209 204 206 209 209 208 206 206 210 211 209 204 203 206 205 203 205 207 213 227 240 246 242 223 208 206 217 222 209 208
198 202 203 207 210 211 213 216 218 223 229 237 244 229 215 218 214 216 219 218 217 217 215 214 212 208 208 206 205 208 214 224 233 242 246 241 227 216 215 191 199 194 188
204 202 204 207 213 213 215 217 221 222 223 227 228 223 224 220 211 218 221 217 217 220 222 221 217 212 208 210 214 219 226 231 241 246 239 228 218 213 208 203 185 199 184
212 209 206 209 212 216 217 219 221 223 222 224 225 222 218 218 216 222 219 220 221 221 222 224 222 218 218 220 223 228 233 237 241 241 227 221 215 213 204 184 195 198 206
215 216 212 214 216 220 221 222 223 223 227 232 231 226 215 212 211 216 220 225 227 225 224 223 224 224 225 227 231 234 238 241 242 236 225 219 211 212 190 198 194 193 200
221 222 220 217 220 222 225 227 226 227 229 233 233 229 219 213 214 217 221 224 228 232 232 230 229 228 229 231 234 236 236 240 238 231 224 212 206 197 197 186 184 211 229
222 224 225 224 224 225 227 229 230 233 234 236 243 237 231 227 223 222 228 234 235 236 237 236 235 235 234 234 237 240 241 240 233 230 219 209 201 193 189 181 227 227 216
222 224 226 228 229 227 229 231 233 236 240 243 247 244 236 235 236 236 238 239 242 246 247 244 244 242 242 241 242 244 245 245 242 233 222 207 197 192 185 193 205 220 207
223 223 224 229 232 232 232 235 237 236 238 244 243 244 243 240 239 240 242 245 247 250 251 253 250 251 250 248 248 249 250 244 247 231 209 199 193 187 194 191 198 208 202
219 223 222 228 235 234 234 236 239 242 244 248 244 249 246 253 254 254 254 255 256 257 257 256 255 254 250 253 250 246 243 231 234 221 206 194 187 191 184 197 216 201 195
219 218 219 223 231 235 235 238 242 246 249 250 251 251 256 252 257 262 262 264 266 265 264 261 259 255 252 248 243 239 231 226 230 210 201 188 189 182 194 207 211 202 196
216 221 224 227 231 236 240 244 250 253 254 256 256 258 261 262 259 258 260 260 262 265 266 266 263 257 251 245 238 234 224 219 203 195 188 183 178 180 198 202 205 203 201